St. James, MN

2:02 AM CST on November 22, 2019 (GMT -0600)
Saint James Municipal

Weather History for KJYG - May, 2019

Change the Weather History Date:

Friday, May 31, 2019

  Actual Average Record
Temperature  
Mean Temperature 76 °F -  
Max Temperature 89 °F 75 °F 92 °F (1988)
Min Temperature 62 °F 52 °F 33 °F (2001)
Cooling Degree Days 10    
Growing Degree Days 26 (Base 50)    
Moisture  
Dew Point 59 °F    
Average Humidity 57    
Maximum Humidity 88    
Minimum Humidity 29    
Precipitation  
Precipitation 0.00 in - - ()
Sea Level Pressure  
Sea Level Pressure 29.81 in    
Wind  
Wind Speed 8 mph (WSW)    
Max Wind Speed 17 mph    
Max Gust Speed 23 mph    
Visibility 10 miles    
Events Thunderstorm    
Averages and records for this station are not official NWS values.
T = Trace of Precipitation, MM = Missing Value Source: NWS Daily Summary

Daily Weather History Graph

Daily Weather History Graph

Search for Another Location

Airport or City:

Astronomy

May. 31, 2019 Rise Set
Actual Time 5:39 AM CDT 8:53 PM CDT
Civil Twilight 5:03 AM CDT 9:28 PM CDT
Nautical Twilight 4:18 AM CDT 10:14 PM CDT
Astronomical Twilight 3:22 AM CDT 11:10 PM CDT
Moon 4:22 AM CDT (5/31) 5:56 PM CDT (5/31)
Length of Visible Light 16h 24m
Length of Day
15h 14m
Waning Crescent, 8% of the Moon is Illuminated
May 31
Waning Crescent
Jun 3
New
Jun 10
First Quarter
Jun 17
Full
Jun 25
Last Quarter

Hourly Weather History & Observations

Time (CDT) Temp. Heat Index Dew Point Humidity Pressure Visibility Wind Dir Wind Speed Gust Speed Precip Events Conditions
12:15 AM 66.2 °F - 59.0 °F 78% 29.82 in 10.0 mi South 8.1 mph - N/A   Clear
12:35 AM 66.2 °F - 59.0 °F 78% 29.82 in 10.0 mi SSW 6.9 mph - N/A   Clear
12:55 AM 66.2 °F - 59.0 °F 78% 29.82 in 10.0 mi SSW 8.1 mph - N/A   Clear
1:15 AM 66.2 °F - 60.8 °F 83% 29.82 in 10.0 mi SSW 6.9 mph - N/A   Clear
1:35 AM 66.2 °F - 60.8 °F 83% 29.81 in 10.0 mi SSW 5.8 mph - N/A   Clear
1:55 AM 66.2 °F - 60.8 °F 83% 29.81 in 10.0 mi SSW 4.6 mph - N/A   Clear
2:15 AM 66.2 °F - 60.8 °F 83% 29.81 in 10.0 mi SSW 5.8 mph - N/A   Clear
2:35 AM 66.2 °F - 60.8 °F 83% 29.81 in 10.0 mi SSW 4.6 mph - N/A   Clear
2:55 AM 66.2 °F - 59.0 °F 78% 29.81 in 10.0 mi SSW 6.9 mph - N/A   Clear
3:15 AM 64.4 °F - 59.0 °F 83% 29.81 in 10.0 mi SW 4.6 mph - N/A   Clear
3:16 AM 64.4 °F - 59.0 °F 83% 29.81 in 10.0 mi SW 4.6 mph - N/A   Clear
3:35 AM 64.4 °F - 59.0 °F 83% 29.81 in 10.0 mi SW 5.8 mph - N/A   Clear
3:55 AM 64.4 °F - 59.0 °F 83% 29.81 in 10.0 mi SW 6.9 mph - N/A   Clear
4:15 AM 62.6 °F - 59.0 °F 88% 29.81 in 10.0 mi WSW 5.8 mph - N/A   Clear
4:16 AM 62.6 °F - 59.0 °F 88% 29.81 in 10.0 mi WSW 5.8 mph - N/A   Clear
4:35 AM 62.6 °F - 59.0 °F 88% 29.81 in 10.0 mi WSW 5.8 mph - N/A   Clear
4:55 AM 62.6 °F - 59.0 °F 88% 29.81 in 10.0 mi WSW 6.9 mph - N/A   Clear
5:15 AM 62.6 °F - 57.2 °F 82% 29.81 in 10.0 mi SW 9.2 mph - N/A   Clear
5:16 AM 62.6 °F - 57.2 °F 82% 29.81 in 10.0 mi SW 8.1 mph - N/A   Clear
5:35 AM 62.6 °F - 57.2 °F 82% 29.82 in 10.0 mi WSW 8.1 mph - N/A   Clear
5:55 AM 62.6 °F - 57.2 °F 82% 29.82 in 10.0 mi SW 6.9 mph - N/A   Clear
6:15 AM 62.6 °F - 57.2 °F 82% 29.83 in 10.0 mi SW 6.9 mph - N/A   Clear
6:35 AM 64.4 °F - 57.2 °F 77% 29.83 in 10.0 mi SW 6.9 mph - N/A   Clear
6:55 AM 64.4 °F - 59.0 °F 83% 29.83 in 10.0 mi SW 6.9 mph - N/A   Clear
7:15 AM 66.2 °F - 59.0 °F 78% 29.83 in 10.0 mi WSW 5.8 mph - N/A   Clear
7:35 AM 69.8 °F - 60.8 °F 73% 29.83 in 10.0 mi WSW 6.9 mph - N/A   Clear
7:55 AM 69.8 °F - 60.8 °F 73% 29.83 in 10.0 mi WSW 8.1 mph - N/A   Clear
8:15 AM 71.6 °F - 60.8 °F 69% 29.84 in 10.0 mi WSW 8.1 mph - N/A   Clear
8:35 AM 73.4 °F - 60.8 °F 65% 29.84 in 10.0 mi West 9.2 mph - N/A   Clear
8:55 AM 75.2 °F - 60.8 °F 61% 29.85 in 10.0 mi West 8.1 mph - N/A   Clear
9:15 AM 75.2 °F - 60.8 °F 61% 29.85 in 10.0 mi West 9.2 mph - N/A   Clear
9:35 AM 77.0 °F - 62.6 °F 61% 29.85 in 10.0 mi West 10.4 mph - N/A   Clear
9:36 AM 77.0 °F - 60.8 °F 57% 29.85 in 10.0 mi West 10.4 mph - N/A   Clear
9:55 AM 78.8 °F - 62.6 °F 57% 29.85 in 10.0 mi West 12.7 mph - N/A   Clear
10:16 AM 78.8 °F - 60.8 °F 54% 29.85 in 10.0 mi West 11.5 mph - N/A   Clear
10:35 AM 80.6 °F 81.8 °F 62.6 °F 54% 29.85 in 10.0 mi WNW 9.2 mph - N/A   Clear
10:36 AM 80.6 °F 81.8 °F 62.6 °F 54% 29.85 in 10.0 mi West 9.2 mph - N/A   Clear
10:55 AM 82.4 °F 82.9 °F 60.8 °F 48% 29.85 in 10.0 mi West 8.1 mph - N/A   Clear
11:16 AM 84.2 °F 83.5 °F 57.2 °F 40% 29.85 in 10.0 mi West 10.4 mph - N/A   Clear
11:35 AM 84.2 °F 84.4 °F 60.8 °F 45% 29.85 in 10.0 mi WNW 9.2 mph - N/A   Clear
11:55 AM 84.2 °F 83.8 °F 59.0 °F 42% 29.84 in 10.0 mi WNW 9.2 mph - N/A   Clear
12:15 PM 86.0 °F 84.9 °F 57.2 °F 37% 29.84 in 10.0 mi West 10.4 mph - N/A   Clear
12:35 PM 87.8 °F 87.1 °F 59.0 °F 38% 29.84 in 10.0 mi West 9.2 mph - N/A   Clear
12:36 PM 87.8 °F 86.5 °F 57.2 °F 35% 29.84 in 10.0 mi West 10.4 mph - N/A   Clear
12:55 PM 87.8 °F 86.1 °F 55.4 °F 33% 29.84 in - West 12.7 mph - N/A   Clear
1:15 PM 87.8 °F 86.1 °F 55.4 °F 33% 29.83 in 10.0 mi West 9.2 mph - N/A   Clear
1:35 PM 87.8 °F 86.5 °F 57.2 °F 35% 29.83 in 10.0 mi West 13.8 mph - N/A   Clear
1:55 PM 87.8 °F 86.1 °F 55.4 °F 33% 29.82 in 10.0 mi WNW 12.7 mph - N/A   Clear
2:15 PM 89.6 °F 87.7 °F 55.4 °F 31% 29.82 in 10.0 mi West 10.4 mph - N/A   Clear
2:35 PM 89.6 °F 87.7 °F 55.4 °F 31% 29.81 in 10.0 mi West 12.7 mph - N/A   Clear
2:36 PM 89.6 °F 87.7 °F 55.4 °F 31% 29.81 in 10.0 mi West 13.8 mph - N/A   Clear
2:55 PM 89.6 °F 87.3 °F 53.6 °F 29% 29.81 in 10.0 mi West 13.8 mph 18.4 mph N/A   Clear
3:15 PM 89.6 °F 87.7 °F 55.4 °F 31% 29.81 in 10.0 mi West 10.4 mph - N/A   Clear
3:35 PM 89.6 °F 87.3 °F 53.6 °F 29% 29.81 in 10.0 mi West 11.5 mph 23.0 mph N/A   Clear
3:55 PM 89.6 °F 87.7 °F 55.4 °F 31% 29.80 in 10.0 mi West 15.0 mph 18.4 mph N/A   Clear
3:56 PM 89.6 °F 87.7 °F 55.4 °F 31% 29.80 in 10.0 mi West 15.0 mph - N/A   Clear
4:15 PM 89.6 °F 87.7 °F 55.4 °F 31% 29.80 in 10.0 mi West 13.8 mph 17.3 mph N/A   Clear
4:36 PM 89.6 °F 87.7 °F 55.4 °F 31% 29.79 in 10.0 mi WSW 16.1 mph 20.7 mph N/A   Clear
4:55 PM 89.6 °F 87.7 °F 55.4 °F 31% 29.79 in 10.0 mi West 11.5 mph - N/A   Clear
5:15 PM 89.6 °F 87.3 °F 53.6 °F 29% 29.79 in 10.0 mi West 13.8 mph 19.6 mph N/A   Clear
5:36 PM 89.6 °F 87.3 °F 53.6 °F 29% 29.79 in 10.0 mi West 17.3 mph 20.7 mph N/A   Clear
5:55 PM 87.8 °F 85.7 °F 53.6 °F 31% 29.79 in 10.0 mi WSW 13.8 mph - N/A   Clear
6:15 PM 87.8 °F 86.1 °F 55.4 °F 33% 29.78 in 10.0 mi WSW 12.7 mph - N/A   Clear
6:35 PM 86.0 °F 84.5 °F 55.4 °F 35% 29.77 in 10.0 mi WSW 11.5 mph - N/A   Clear
6:37 PM 87.8 °F 86.1 °F 55.4 °F 33% 29.77 in 10.0 mi WSW 12.7 mph - N/A   Clear
6:55 PM 84.2 °F 83.5 °F 57.2 °F 40% 29.77 in 10.0 mi WSW 10.4 mph - N/A   Clear
6:56 PM 84.2 °F 83.5 °F 57.2 °F 40% 29.77 in 10.0 mi WSW 9.2 mph - N/A   Clear
7:15 PM 84.2 °F 83.5 °F 57.2 °F 40% 29.77 in 10.0 mi WSW 8.1 mph - N/A   Clear
7:35 PM 84.2 °F 83.5 °F 57.2 °F 40% 29.77 in 10.0 mi WSW 10.4 mph - N/A   Clear
7:55 PM 82.4 °F 82.0 °F 57.2 °F 42% 29.77 in 10.0 mi WSW 8.1 mph - N/A   Clear
7:56 PM 82.4 °F 82.0 °F 57.2 °F 42% 29.77 in 10.0 mi WSW 8.1 mph - N/A   Clear
8:15 PM 80.6 °F 81.5 °F 60.8 °F 51% 29.77 in 10.0 mi WSW 6.9 mph - N/A   Clear
8:35 PM 78.8 °F - 60.8 °F 54% 29.78 in 10.0 mi SW 6.9 mph - N/A   Clear
8:55 PM 78.8 °F - 60.8 °F 54% 29.77 in 10.0 mi SSW 3.5 mph - N/A   Clear
8:56 PM 77.0 °F - 60.8 °F 57% 29.77 in 10.0 mi SSW 4.6 mph - N/A   Clear
9:15 PM 75.2 °F - 62.6 °F 65% 29.77 in 10.0 mi SSW 5.8 mph - N/A   Clear
9:35 PM 75.2 °F - 62.6 °F 65% 29.77 in 10.0 mi SSW 4.6 mph - N/A   Clear
9:55 PM 75.2 °F - 62.6 °F 65% 29.78 in 10.0 mi SSW 4.6 mph - N/A   Clear
10:15 PM 73.4 °F - 62.6 °F 69% 29.78 in 10.0 mi SSW 4.6 mph - N/A   Clear
10:35 PM 75.2 °F - 60.8 °F 61% 29.78 in 10.0 mi SSW 8.1 mph - N/A   Clear
10:56 PM 73.4 °F - 60.8 °F 65% 29.77 in - SSW 6.9 mph - N/A   Clear
11:15 PM 71.6 °F - 60.8 °F 69% 29.76 in - SSW 5.8 mph - N/A Thunderstorm Thunderstorm
11:16 PM 71.6 °F - 60.8 °F 69% 29.76 in - SSW 5.8 mph - N/A Thunderstorm Thunderstorm
11:35 PM 71.6 °F - 60.8 °F 69% 29.77 in - SSW 8.1 mph - N/A   Clear
11:56 PM 71.6 °F - 60.8 °F 69% 29.77 in - SSW 10.4 mph - N/A   Clear